Find Starlink 31607

NORAD ID: 59394 Int'l Des: 2024-062 Owner: SPXS Country: US Constellation: starlink operational
LEOCIRCULAR

Current View

Loading 3D Globe...

About Starlink 31607

Starlink 31607 (NORAD 59394) is a starlink constellation satellite (v2 mini) launched Apr 2, 2024 by SPXS of US. It operates in LEO, CIRCULAR orbit with a mass of 730.00 kg.

About Starlink 31607

Description loading...

Upcoming Passes

Passes for default location (London). Set your location on the main map for personalized predictions.

Altitude History

Loading altitude history...

Two-Line Element Set

1 59394U 24062W 26171.21784116 -.00003030 00000-0 -78596-4 0 9998
2 59394 53.1611 139.0933 0001360 97.1591 262.9567 15.34385646125368
Epoch: Jun 20, 2026 • Age: 8 hours

Current Status

Altitude 466.0 km
Velocity 7.64 km/s
Sub-Earth Point 42.40°N, 162.16°E
Launch Date Apr 2, 2024
Age 2.2 years
Type internet

Technical Details

Classification Payload
Mass 730.00 kg
Dry Mass 700.00 kg
Total Mass 730.00 kg
Length 0.30 m
Diameter 4.10 m
Span 29.00 m
Shape Box + pan
Manufacturer SPXS
Bus Type Starlink V2M
Phase Status In Orbit
Owner/State SPXS/US

Most Searched